EW5207 Weather Reports


time (UTC)temp
C
wind
direction
speed
KPH
gust
KPH
rain 1hr
cm
rain 24hr
cm
rain mn
cm
humidity
%
barometer
mb
20260505052454 13 111 0.0 0.0 0.00 0.00 0.00 68 1009.4
20260505052251 13 79 3.2 3.2 0.00 0.00 0.00 74 1007.9
20260505051952 13 111 0.0 0.0 0.00 0.00 0.00 68 1009.4
20260505051748 13 81 0.0 3.2 0.00 0.00 0.00 73 1008.1
20260505051450 13 111 0.0 0.0 0.00 0.00 0.00 68 1009.4
20260505051246 13 123 3.2 4.8 0.00 0.00 0.00 73 1008.1
20260505050950 13 111 0.0 0.0 0.00 0.00 0.00 68 1009.3
20260505050744 13 109 4.8 4.8 0.00 0.00 0.00 72 1008.1
20260505050448 13 111 0.0 0.0 0.00 0.00 0.00 68 1009.3
20260505050242 14 152 4.8 6.4 0.00 0.00 0.00 71 1008.2
20260505041712 14 100 3.2 3.2 0.00 0.00 0.00 68 1008.3
20260505041443 14 81 0.0 0.0 0.00 0.00 0.00 62 1009.3
20260505041209 15 106 1.6 3.2 0.00 0.00 0.00 65 1008.1
20260505040950 14 81 0.0 0.0 0.00 0.00 0.00 61 1009.3
20260505040706 15 103 0.0 4.8 0.00 0.00 0.00 65 1008.0
20260505040442 14 80 0.0 0.0 0.00 0.00 0.00 62 1009.2
20260505040204 14 131 3.2 3.2 0.00 0.00 0.00 64 1007.9
20260505035930 14 80 0.0 0.0 0.00 0.00 0.00 62 1009.2
20260505035700 14 121 3.2 4.8 0.00 0.00 0.00 67 1007.7
20260505035429 15 80 0.0 0.0 0.00 0.00 0.00 61 1009.2
20260505035156 14 120 0.0 1.6 0.00 0.00 0.00 66 1007.8
20260505034927 15 80 0.0 0.0 0.00 0.00 0.00 60 1009.0
20260505034653 14 82 1.6 3.2 0.00 0.00 0.00 65 1007.7
20260505034426 15 80 0.0 0.0 0.00 0.00 0.00 60 1008.9
20260505034150 15 112 4.8 4.8 0.00 0.00 0.00 64 1007.8
20260505033925 15 80 0.0 0.0 0.00 0.00 0.00 61 1009.0
20260505033646 15 107 4.8 4.8 0.00 0.00 0.00 64 1007.6
20260505033425 15 76 0.0 0.0 0.00 0.00 0.00 61 1009.0
20260505033158 15 75 0.0 0.0 0.00 0.00 0.00 59 1009.0
20260505033145 15 101 3.2 4.8 0.00 0.00 0.00 63 1007.8
20260505032643 15 114 1.6 3.2 0.00 0.00 0.00 61 1007.9
20260505032402 15 75 0.0 0.0 0.00 0.00 0.00 59 1009.1
20260505032138 15 110 3.2 3.2 0.00 0.00 0.00 61 1007.8
20260505031847 15 75 0.0 0.0 0.00 0.00 0.00 58 1009.2
20260505031636 15 126 1.6 3.2 0.00 0.00 0.00 61 1007.9
20260505031334 15 75 0.0 0.0 0.00 0.00 0.00 59 1009.1
20260505031132 15 103 0.0 3.2 0.00 0.00 0.00 61 1007.8
20260505030825 15 75 0.0 0.0 0.00 0.00 0.00 59 1009.1
20260505030629 15 120 1.6 3.2 0.00 0.00 0.00 63 1007.9
20260505030324 15 75 0.0 0.0 0.00 0.00 0.00 60 1009.2
20260505030125 15 106 1.6 3.2 0.00 0.00 0.00 64 1008.1
20260505025820 15 75 0.0 0.0 0.00 0.00 0.00 60 1009.1
20260505025621 15 97 1.6 3.2 0.00 0.00 0.00 63 1007.8
20260505025320 15 75 0.0 0.0 0.00 0.00 0.00 59 1009.0
20260505025120 15 106 0.0 3.2 0.00 0.00 0.00 63 1007.8
20260505024820 15 75 0.0 0.0 0.00 0.00 0.00 59 1009.1
20260505024617 15 117 3.2 4.8 0.00 0.00 0.00 61 1007.8
20260505024318 15 75 0.0 0.0 0.00 0.00 0.00 59 1009.1
20260505024114 15 103 1.6 3.2 0.00 0.00 0.00 62 1007.9
20260505024058 15 75 0.0 0.0 0.00 0.00 0.00 59 1009.1
20260505023611 15 123 3.2 3.2 0.00 0.00 0.00 62 1007.7
20260505023303 15 75 0.0 0.0 0.00 0.00 0.00 58 1009.1
20260505023109 15 57 3.2 3.2 0.00 0.00 0.00 64 1007.7
20260505022748 15 75 0.0 0.0 0.00 0.00 0.00 59 1009.1
20260505022606 15 85 3.2 3.2 0.00 0.00 0.00 63 1007.8
20260505022240 15 75 0.0 0.0 0.00 0.00 0.00 60 1009.1
20260505022103 15 99 3.2 4.8 0.00 0.00 0.00 62 1007.9
20260505022019 15 75 0.0 0.0 0.00 0.00 0.00 59 1009.2
20260505021559 15 84 3.2 3.2 0.00 0.00 0.00 63 1008.0
20260505021233 15 75 0.0 0.0 0.00 0.00 0.00 59 1009.3
20260505021056 15 117 3.2 3.2 0.00 0.00 0.00 62 1007.9
20260505020727 15 75 0.0 0.0 0.00 0.00 0.00 59 1009.3
20260505020556 15 123 0.0 4.8 0.00 0.00 0.00 65 1007.9
20260505020225 15 75 0.0 0.0 0.00 0.00 0.00 60 1009.3
20260505020053 15 102 3.2 3.2 0.00 0.00 0.00 64 1008.2
20260505015724 15 75 0.0 0.0 0.00 0.00 0.00 60 1009.4
20260505015550 15 67 3.2 4.8 0.00 0.00 0.00 65 1008.2
20260505015224 15 75 0.0 0.0 0.00 0.00 0.00 60 1009.3
20260505015047 15 94 3.2 3.2 0.00 0.00 0.00 64 1008.2
20260505014723 15 74 0.0 0.0 0.00 0.00 0.00 58 1009.3
20260505014544 15 106 3.2 3.2 0.00 0.00 0.00 64 1008.1
20260505014215 15 74 0.0 0.0 0.00 0.00 0.00 59 1009.2
20260505014041 15 82 0.0 3.2 0.00 0.00 0.00 63 1008.1
20260505013713 15 74 0.0 0.0 0.00 0.00 0.00 57 1009.3
20260505013538 15 84 1.6 3.2 0.00 0.00 0.00 64 1007.9
20260505013213 15 74 0.0 0.0 0.00 0.00 0.00 57 1009.2
20260505013036 15 99 0.0 1.6 0.00 0.00 0.00 62 1007.9
20260505012712 16 74 0.0 0.0 0.00 0.00 0.00 57 1009.1
20260505012534 15 96 3.2 3.2 0.00 0.00 0.00 60 1008.2
20260505012212 16 74 0.0 0.0 0.00 0.00 0.00 56 1009.1
20260505012034 16 74 0.0 0.0 0.00 0.00 0.00 55 1009.0
20260505012030 15 74 1.6 3.2 0.00 0.00 0.00 59 1008.0
20260505011740 16 74 0.0 0.0 0.00 0.00 0.00 53 1009.0
20260505011526 16 90 1.6 3.2 0.00 0.00 0.00 58 1007.7
20260505011023 16 74 1.6 3.2 0.00 0.00 0.00 57 1007.9
20260505010951 16 74 0.0 0.0 0.00 0.00 0.00 52 1009.0
20260505010518 16 69 0.0 3.2 0.00 0.00 0.00 57 1007.8
20260505010205 16 74 0.0 0.0 0.00 0.00 0.00 52 1008.9
20260505010015 16 100 3.2 3.2 0.00 0.00 0.00 58 1007.6
20260505005707 16 74 0.0 0.0 0.00 0.00 0.00 52 1008.9
20260505005512 16 84 3.2 3.2 0.00 0.00 0.00 56 1007.5
20260505005204 17 55 0.0 0.0 0.00 0.00 0.00 51 1008.8
20260505005009 16 66 0.0 4.8 0.00 0.00 0.00 56 1007.7
20260505004704 17 71 0.0 0.0 0.00 0.00 0.00 50 1008.9
20260505004506 16 74 0.0 3.2 0.00 0.00 0.00 56 1007.5
20260505004453 17 71 0.0 0.0 0.00 0.00 0.00 49 1008.8
20260505004003 16 81 0.0 3.2 0.00 0.00 0.00 54 1007.5
20260505003700 17 71 0.0 0.0 0.00 0.00 0.00 50 1008.7
20260505003500 17 90 0.0 0.0 0.00 0.00 0.00 56 1007.7
20260505003159 17 157 0.0 0.0 0.00 0.00 0.00 50 1008.7
20260505002956 17 81 0.0 3.2 0.00 0.00 0.00 55 1007.5
20260505002657 17 157 0.0 0.0 0.00 0.00 0.00 50 1008.6
20260505002452 17 80 0.0 4.8 0.00 0.00 0.00 54 1007.4
20260505002147 18 157 0.0 0.0 0.00 0.00 0.00 48 1008.5
20260505001951 17 125 3.2 4.8 0.00 0.00 0.00 51 1007.2
20260505001645 18 157 0.0 0.0 0.00 0.00 0.00 46 1008.6
20260505001448 18 151 4.8 4.8 0.00 0.00 0.00 51 1007.0
20260505001144 18 157 0.0 0.0 0.00 0.00 0.00 47 1008.6
20260505000945 18 135 3.2 4.8 0.00 0.00 0.00 50 1007.0
20260505000645 18 157 0.0 0.0 0.00 0.00 0.00 47 1008.6
20260505000443 18 159 3.2 4.8 0.00 0.00 0.00 49 1007.4
20260505000145 18 157 0.0 0.0 0.00 0.00 0.00 45 1008.6
20260504235940 18 172 0.0 3.2 0.00 0.00 0.00 48 1007.4
20260504235643 18 166 0.0 0.0 0.00 0.00 0.00 45 1008.5
20260504235437 18 180 0.0 3.2 0.00 0.00 0.00 48 1007.3
20260504235140 18 166 0.0 0.0 0.00 0.00 0.00 46 1008.5
20260504234933 18 158 3.2 3.2 0.00 0.00 0.00 48 1007.2
20260504234640 18 166 0.0 0.0 0.00 0.00 0.00 46 1008.5
20260504234431 18 131 3.2 6.4 0.00 0.00 0.00 48 1007.1
20260504234426 19 129 0.0 0.0 0.00 0.00 0.00 44 1008.5
20260504233927 19 157 0.0 4.8 0.00 0.00 0.00 47 1006.9
20260504233640 19 129 0.0 0.0 0.00 0.00 0.00 45 1008.4
20260504233424 19 125 0.0 0.0 0.00 0.00 0.00 45 1008.4
20260504232920 19 161 3.2 6.4 0.00 0.00 0.00 47 1007.1
20260504232623 19 144 0.0 0.0 0.00 0.00 0.00 43 1008.4
20260504232417 20 172 3.2 8.0 0.00 0.00 0.00 46 1007.1
20260504232148 19 124 0.0 0.0 0.00 0.00 0.00 43 1008.4
20260504232133 19 154 0.0 0.0 0.00 0.00 0.00 43 1008.4
20260504231914 20 121 3.2 4.8 0.00 0.00 0.00 45 1007.3
20260504231410 20 144 4.8 8.0 0.00 0.00 0.00 45 1007.3
20260504231109 19 161 0.0 0.0 0.00 0.00 0.00 42 1008.5
20260504230907 20 150 3.2 4.8 0.00 0.00 0.00 45 1007.1
20260504230606 19 123 0.0 0.0 0.00 0.00 0.00 43 1008.5
20260504230404 20 153 4.8 8.0 0.00 0.00 0.00 46 1007.0
20260504230111 20 140 0.0 0.0 0.00 0.00 0.00 42 1008.5
20260504225903 20 194 3.2 4.8 0.00 0.00 0.00 45 1007.2
20260504225606 20 144 0.0 0.0 0.00 0.00 0.00 42 1008.5
20260504225359 20 127 3.2 4.8 0.00 0.00 0.00 45 1007.1
20260504225051 20 159 0.0 0.0 0.00 0.00 0.00 42 1008.5
20260504224856 20 180 4.8 9.7 0.00 0.00 0.00 45 1007.2
20260504224544 20 115 0.0 0.0 0.00 0.00 0.00 42 1008.5
20260504224353 20 148 4.8 4.8 0.00 0.00 0.00 45 1007.2
20260504224044 20 146 0.0 0.0 0.00 0.00 0.00 42 1008.5
20260504223850 20 180 8.0 8.0 0.00 0.00 0.00 45 1007.1
20260504223544 20 136 0.0 0.0 0.00 0.00 0.00 42 1008.5
20260504223345 20 119 3.2 8.0 0.00 0.00 0.00 44 1006.9
20260504223043 20 132 0.0 0.0 0.00 0.00 0.00 42 1008.5
20260504222842 20 171 4.8 6.4 0.00 0.00 0.00 44 1007.2
20260504222541 20 119 0.0 0.0 0.00 0.00 0.00 41 1008.5
20260504222338 20 151 6.4 6.4 0.00 0.00 0.00 44 1007.2
20260504222331 20 147 0.0 0.0 0.00 0.00 0.00 41 1008.6
20260504221837 20 201 4.8 6.4 0.00 0.00 0.00 42 1007.0
20260504221537 20 154 0.0 0.0 0.00 0.00 0.00 40 1008.6
20260504221333 20 112 3.2 8.0 0.00 0.00 0.00 43 1006.9
20260504221316 20 177 0.0 0.0 0.00 0.00 0.00 41 1008.6
20260504220831 20 166 6.4 8.0 0.00 0.00 0.00 43 1007.1
20260504220521 20 150 0.0 0.0 0.00 0.00 0.00 40 1008.6
20260504220327 20 188 9.7 11.3 0.00 0.00 0.00 42 1007.0
20260504220009 20 155 0.0 0.0 0.00 0.00 0.00 40 1008.6
20260504215825 20 152 8.0 8.0 0.00 0.00 0.00 41 1007.0
20260504215509 20 149 0.0 0.0 0.00 0.00 0.00 39 1008.6
20260504215321 20 199 3.2 8.0 0.00 0.00 0.00 42 1007.3
20260504215007 20 140 0.0 0.0 0.00 0.00 0.00 39 1008.7
20260504214817 20 169 9.7 12.9 0.00 0.00 0.00 41 1007.4
20260504214505 20 145 0.0 0.0 0.00 0.00 0.00 39 1008.6
20260504214314 20 176 3.2 8.0 0.00 0.00 0.00 42 1007.0
20260504214003 20 138 0.0 0.0 0.00 0.00 0.00 39 1008.6
20260504213811 20 188 3.2 9.7 0.00 0.00 0.00 41 1007.2
20260504213748 20 162 0.0 0.0 0.00 0.00 0.00 39 1008.7
20260504213307 21 140 6.4 9.7 0.00 0.00 0.00 41 1007.2
20260504212958 20 177 0.0 0.0 0.00 0.00 0.00 38 1008.6
20260504212804 21 173 6.4 11.3 0.00 0.00 0.00 40 1007.3
20260504212456 20 162 0.0 0.0 0.00 0.00 0.00 39 1008.7
20260504212300 21 162 6.4 9.7 0.00 0.00 0.00 41 1007.3
20260504211947 21 169 0.0 0.0 0.00 0.00 0.00 39 1008.6
20260504211758 21 159 3.2 4.8 0.00 0.00 0.00 42 1007.1
20260504211433 21 157 0.0 0.0 0.00 0.00 0.00 39 1008.6
20260504211254 21 149 8.0 9.7 0.00 0.00 0.00 40 1007.2
20260504210933 21 162 0.0 0.0 0.00 0.00 0.00 37 1008.6
20260504210752 21 194 4.8 11.3 0.00 0.00 0.00 41 1007.2
20260504210431 21 113 0.0 0.0 0.00 0.00 0.00 38 1008.6
20260504210249 21 128 8.0 8.0 0.00 0.00 0.00 41 1007.2
20260504210215 21 158 0.0 0.0 0.00 0.00 0.00 38 1008.6
20260504205746 21 161 6.4 8.0 0.00 0.00 0.00 39 1007.1
20260504205431 21 153 0.0 0.0 0.00 0.00 0.00 38 1008.6
20260504205243 21 205 4.8 9.7 0.00 0.00 0.00 39 1007.3
20260504205222 21 173 0.0 0.0 0.00 0.00 0.00 38 1008.6
20260504204741 21 180 3.2 8.0 0.00 0.00 0.00 40 1007.4
20260504204716 21 159 0.0 0.0 0.00 0.00 0.00 39 1008.6
20260504204239 21 118 6.4 6.4 0.00 0.00 0.00 42 1007.0
20260504203930 21 121 0.0 0.0 0.00 0.00 0.00 39 1008.6
20260504203738 21 180 3.2 8.0 0.00 0.00 0.00 41 1007.2
20260504203429 21 208 0.0 0.0 0.00 0.00 0.00 39 1008.6
20260504203235 21 194 4.8 8.0 0.00 0.00 0.00 40 1007.2
20260504202921 20 172 0.0 0.0 0.00 0.00 0.00 40 1008.7
20260504202735 21 139 6.4 8.0 0.00 0.00 0.00 41 1007.4
20260504202417 20 161 0.0 0.0 0.00 0.00 0.00 41 1008.7
20260504202233 21 157 6.4 9.7 0.00 0.00 0.00 43 1007.3
20260504201918 20 122 0.0 0.0 0.00 0.00 0.00 40 1008.8
20260504201730 21 183 4.8 8.0 0.00 0.00 0.00 41 1007.3
20260504201419 20 149 0.0 0.0 0.00 0.00 0.00 41 1008.9
20260504201227 21 180 9.7 9.7 0.00 0.00 0.00 43 1007.4
20260504200918 20 253 0.0 0.0 0.00 0.00 0.00 39 1008.9
20260504200725 20 139 6.4 11.3 0.00 0.00 0.00 42 1007.4
20260504200418 20 145 0.0 0.0 0.00 0.00 0.00 41 1009.0
20260504200220 21 225 4.8 8.0 0.00 0.00 0.00 42 1007.7
20260504195917 20 117 0.0 0.0 0.00 0.00 0.00 42 1009.1
20260504195717 20 169 0.0 6.4 0.00 0.00 0.00 44 1007.6
20260504195359 20 154 0.0 0.0 0.00 0.00 0.00 40 1009.2
20260504195213 20 170 6.4 8.0 0.00 0.00 0.00 43 1007.7
20260504195130 20 170 0.0 0.0 0.00 0.00 0.00 42 1009.2
20260504194710 20 157 4.8 14.5 0.00 0.00 0.00 42 1007.9
20260504194349 20 148 0.0 0.0 0.00 0.00 0.00 40 1009.2
20260504194206 20 121 6.4 9.7 0.00 0.00 0.00 43 1007.8
20260504193847 21 167 0.0 0.0 0.00 0.00 0.00 40 1009.3
20260504193703 20 168 4.8 8.0 0.00 0.00 0.00 42 1008.1
20260504193348 21 180 0.0 0.0 0.00 0.00 0.00 39 1009.3
20260504193200 20 257 1.6 6.4 0.00 0.00 0.00 40 1008.1
20260504192847 21 178 0.0 0.0 0.00 0.00 0.00 37 1009.3
20260504192658 21 230 4.8 8.0 0.00 0.00 0.00 41 1008.1
20260504192423 21 161 0.0 0.0 0.00 0.00 0.00 39 1009.5
20260504192414 21 194 0.0 0.0 0.00 0.00 0.00 39 1009.4
20260504192156 21 193 4.8 11.3 0.00 0.00 0.00 41 1007.9
20260504191654 21 114 0.0 6.4 0.00 0.00 0.00 43 1008.0
20260504191345 21 158 0.0 0.0 0.00 0.00 0.00 39 1009.6
20260504191150 21 169 3.2 9.7 0.00 0.00 0.00 43 1008.2
20260504190839 21 187 0.0 0.0 0.00 0.00 0.00 38 1009.6
20260504190646 21 232 6.4 16.1 0.00 0.00 0.00 41 1008.4
20260504190341 21 126 0.0 0.0 0.00 0.00 0.00 40 1009.7
20260504190143 21 127 3.2 3.2 0.00 0.00 0.00 42 1008.2
20260504185839 21 170 0.0 0.0 0.00 0.00 0.00 38 1009.8
20260504185639 21 143 9.7 9.7 0.00 0.00 0.00 41 1008.3
20260504185619 21 137 0.0 0.0 0.00 0.00 0.00 38 1009.8
20260504185136 21 158 4.8 8.0 0.00 0.00 0.00 42 1008.3
20260504184837 21 130 0.0 0.0 0.00 0.00 0.00 37 1009.8
20260504184632 21 355 1.6 11.3 0.00 0.00 0.00 41 1008.5
20260504184338 21 168 0.0 0.0 0.00 0.00 0.00 37 1009.9
20260504184127 21 155 4.8 9.7 0.00 0.00 0.00 44 1008.3
20260504183625 21 190 6.4 11.3 0.00 0.00 0.00 43 1008.4
20260504183614 20 175 0.0 0.0 0.00 0.00 0.00 40 1009.9
20260504183122 20 128 6.4 11.3 0.00 0.00 0.00 41 1008.7
20260504183102 20 123 0.0 0.0 0.00 0.00 0.00 37 1009.9
20260504182620 21 153 14.5 14.5 0.00 0.00 0.00 42 1008.7
20260504182315 20 129 0.0 0.0 0.00 0.00 0.00 36 1010.0
20260504182117 21 195 3.2 8.0 0.00 0.00 0.00 42 1008.8
20260504181816 20 173 0.0 0.0 0.00 0.00 0.00 36 1010.1
20260504181614 20 245 9.7 9.7 0.00 0.00 0.00 40 1008.5
20260504181317 21 180 0.0 0.0 0.00 0.00 0.00 36 1010.2
20260504181112 20 339 4.8 8.0 0.00 0.00 0.00 40 1008.7
20260504180814 21 194 0.0 0.0 0.00 0.00 0.00 36 1010.2
20260504180611 20 237 4.8 9.7 0.00 0.00 0.00 40 1008.9
20260504180313 20 140 0.0 0.0 0.00 0.00 0.00 40 1010.4
20260504180109 20 228 3.2 8.0 0.00 0.00 0.00 39 1009.1
20260504175815 20 167 0.0 0.0 0.00 0.00 0.00 38 1010.5
20260504175606 20 212 3.2 8.0 0.00 0.00 0.00 42 1009.0
20260504175312 20 170 0.0 0.0 0.00 0.00 0.00 38 1010.6
20260504175103 20 270 3.2 6.4 0.00 0.00 0.00 41 1009.2
20260504174810 20 184 0.0 0.0 0.00 0.00 0.00 37 1010.7
20260504174601 20 190 6.4 9.7 0.00 0.00 0.00 40 1009.2
20260504174302 20 169 0.0 0.0 0.00 0.00 0.00 41 1010.6
20260504174057 20 185 4.8 9.7 0.00 0.00 0.00 41 1009.1
20260504173802 21 173 0.0 0.0 0.00 0.00 0.00 38 1010.8
20260504173554 20 250 4.8 6.4 0.00 0.00 0.00 40 1009.4
20260504173302 21 211 0.0 0.0 0.00 0.00 0.00 37 1010.8
20260504173052 21 303 4.8 8.0 0.00 0.00 0.00 40 1009.4
20260504172759 20 284 0.0 0.0 0.00 0.00 0.00 41 1010.8
20260504172547 20 183 8.0 11.3 0.00 0.00 0.00 40 1009.5
20260504172257 20 200 0.0 0.0 0.00 0.00 0.00 37 1010.9
20260504172044 20 246 8.0 9.7 0.00 0.00 0.00 42 1009.2
20260504171757 19 142 0.0 0.0 0.00 0.00 0.00 41 1010.9
20260504171541 20 118 6.4 8.0 0.00 0.00 0.00 41 1009.4
20260504171258 20 159 0.0 0.0 0.00 0.00 0.00 38 1011.1
20260504171038 20 180 3.2 8.0 0.00 0.00 0.00 41 1009.6
20260504170756 19 199 0.0 0.0 0.00 0.00 0.00 38 1011.2
20260504170534 19 189 6.4 8.0 0.00 0.00 0.00 41 1009.7
20260504170242 19 124 0.0 0.0 0.00 0.00 0.00 42 1011.2
20260504150918 17 258 0.0 6.4 0.00 0.00 0.00 44 1010.8
20260504150729 17 196 0.0 0.0 0.00 0.00 0.00 40 1012.6
20260504150415 17 216 3.2 4.8 0.00 0.00 0.00 43 1011.0
20260504150157 17 185 0.0 0.0 0.00 0.00 0.00 40 1012.7
20260504141150 16 189 0.0 0.0 0.00 0.00 0.00 46 1012.8
20260504140841 15 228 3.2 8.0 0.00 0.00 0.00 53 1011.1
20260504140651 16 173 0.0 0.0 0.00 0.00 0.00 49 1012.8
20260504140337 16 158 3.2 4.8 0.00 0.00 0.00 58 1010.9
20260504140151 15 169 0.0 0.0 0.00 0.00 0.00 52 1012.7
20260504130806 12 182 4.8 9.7 0.00 0.00 0.00 65 1011.4
20260504130644 12 166 0.0 0.0 0.00 0.00 0.00 59 1013.1
20260504130431 12 200 0.0 0.0 0.00 0.00 0.00 59 1013.1
20260504130302 12 192 3.2 8.0 0.00 0.00 0.00 65 1011.3
20260504120225 11 225 6.4 6.4 0.00 0.00 0.00 71 1011.3
20260504120135 10 201 0.0 0.0 0.00 0.00 0.00 68 1013.1
20260504110653 8 123 1.6 3.2 0.00 0.00 0.00 69 1011.4
20260504110552 7 200 0.0 0.0 0.00 0.00 0.00 68 1013.5
20260504110149 8 114 1.6 3.2 0.00 0.00 0.00 69 1011.5
20260504110104 7 183 0.0 0.0 0.00 0.00 0.00 68 1013.4
20260504100615 4 24 3.2 4.8 0.00 0.00 0.00 86 1011.6
20260504100445 3 245 0.0 0.0 0.00 0.00 0.00 81 1013.6
20260504100113 4 84 1.6 3.2 0.00 0.00 0.00 88 1011.7
20260504081820 3 234 0.0 0.0 0.00 0.00 0.00 82 1013.5
20260504081600 3 234 0.0 0.0 0.00 0.00 0.00 82 1013.6
20260504081506 3 68 0.0 3.2 0.00 0.00 0.00 88 1011.6
20260504081109 3 234 0.0 0.0 0.00 0.00 0.00 81 1013.6
20260504081002 3 90 1.6 3.2 0.00 0.00 0.00 86 1011.4
20260504080603 3 234 0.0 0.0 0.00 0.00 0.00 81 1013.5
20260504080458 3 90 0.0 3.2 0.00 0.00 0.00 87 1011.6
20260504070310 3 234 0.0 0.0 0.00 0.00 0.00 79 1013.5